Miscellaneous Local Product
Issued by NWS Hastings, NE

Home | Current Version | Previous Version | Graphics & Text | Print | Product List | Glossary On
Versions: 1 2 3 4 5 6 7 8 9 10 11 12 13 14 15 16 17 18 19 20 21 22 23 24 25 26 27 28 29 30 31 32 33 34 35 36 37 38 39 40 41 42 43 44 45 46 47 48 49 50
000
AXUS43 KGID 170502
MISGRI

GID CWA HOURLY WEATHER ROUNDUP
NATIONAL WEATHER SERVICE HASTINGS NE
1100 PM CST TUE DEC 16 2014

NOTE: "FAIR" INDICATES FEW OR NO CLOUDS BELOW 12,000 FEET WITH NO
SIGNIFICANT WEATHER AND/OR OBSTRUCTIONS TO VISIBILITY.

...SOUTH CENTRAL NEBRASKA...

CITY           SKY/WX    TMP DP  RH WIND       PRES   REMARKS
GRAND ISLAND   CLOUDY    20  16  84 CALM      30.33S
HASTINGS       CLOUDY    22  17  81 NE5       30.29F WCI  16
KEARNEY        CLOUDY    21  16  79 NE7       30.29S WCI  13
ORD            CLOUDY    19  15  84 E3        30.29S
YORK           CLOUDY    19  18  93 N5        30.34R WCI  13
AURORA         CLOUDY    20  17  88 NW5       30.32S WCI  14
LEXINGTON      CLOUDY    22  19  87 E5        30.26F WCI  16
HOLDREGE       CLOUDY    22  18  87 E3        30.28S
HEBRON         CLOUDY    23  17  78 N6        30.35F WCI  16

...NEBRASKA PANHANDLE...

CITY           SKY/WX    TMP DP  RH WIND       PRES   REMARKS
CHADRON        MOCLDY    15  12  88 CALM      30.13F
ALLIANCE       CLOUDY    20  18  92 S12       30.10F WCI   8
SCOTTSBLUFF    PTCLDY    16  14  92 E10       30.09S WCI   4
SIDNEY         CLOUDY    22  19  89 S18       30.06F WCI   7

...WESTERN AND NORTH CENTRAL NEBRASKA...

CITY           SKY/WX    TMP DP  RH WIND       PRES   REMARKS
VALENTINE      CLOUDY    20  16  84 SE5       30.23S WCI  13
AINSWORTH      CLOUDY    19  16  91 E3        30.24S
ONEILL         CLOUDY    19  18  94 CALM      30.30S
BROKEN BOW     CLOUDY    21  18  88 SE6       30.24F WCI  13
IMPERIAL       MOCLDY    23  20  88 SE9       30.17F WCI  13
NORTH PLATTE   CLOUDY    19  17  92 SE7       30.23S WCI  10
MCCOOK         MOCLDY    22  19  89 SE7       30.24F WCI  13

...EASTERN NEBRASKA...

CITY           SKY/WX    TMP DP  RH WIND       PRES   REMARKS
NORFOLK        CLOUDY    21  16  81 N8        30.32S WCI  11
SO SIOUX CITY  MOCLDY    15  11  83 NW7       30.36S WCI   5
TEKAMAH        PTCLDY    17  12  80 NW6       30.36S WCI   9
COLUMBUS       CLOUDY    19  12  73 NW7       30.35F WCI  10
ALBION         CLOUDY    19  16  86 W3        30.32S
OMAHA EPPLEY   PTCLDY    19  14  81 NW8       30.37R WCI   9
OFFUTT AFB     PTCLDY    18  14  82 NW6       30.36S WCI  10
MILLARD        PTCLDY    20  15  80 NW6       30.37S WCI  12
LINCOLN        CLOUDY    21  16  81 N6        30.37F WCI  13
NEBRASKA CITY  CLEAR     20  15  79 N7        30.36S WCI  11
BEATRICE       CLOUDY    23  19  83 N5        30.35S WCI  17
FALLS CITY     PTCLDY    22  16  78 NW9       30.36S WCI  12

...NORTHERN KANSAS...

CITY           SKY/WX    TMP DP  RH WIND       PRES   REMARKS
GOODLAND       PTCLDY    25  21  85 SE13      30.15F WCI  14
HILL CITY      MOCLDY    22  18  85 E7        30.27F WCI  13
NORTON         CLEAR     19  16  86 E3        30.26F
PHILLIPSBURG   CLEAR     25  25 100 CALM      30.31R
SMITH CENTER   CLEAR     19  18  93 CALM      30.32S
BELOIT         PTCLDY    25  21  86 E3        30.33S
HAYS           CLOUDY    25  16  68 E9        30.28S WCI  15
RUSSELL        CLOUDY    25  22  88 E8        30.29S WCI  16
CONCORDIA      CLOUDY    24  20  84 NE8       30.33S WCI  15
SALINA         MOCLDY    27  20  75 NE5       30.34F WCI  22
TOPEKA         CLOUDY    28  21  75 N5        30.37S WCI  23



USA.gov is the U.S. government's official web portal to all federal, state and local government web resources and services.